Timberlake, NC

4:08 AM EST on February 14, 2016 (GMT -0500)
Person County

Weather History for KTDF - October, 2013

Change the Weather History Date:

Tuesday, October 29, 2013

  Actual Average Record
Temperature  
Mean Temperature 58 °F -  
Max Temperature 69 °F 68 °F 83 °F (1984)
Min Temperature 48 °F 41 °F 24 °F (2001)
Degree Days  
Heating Degree Days 6    
Growing Degree Days 8 (Base 50)    
Moisture  
Dew Point 51 °F    
Average Humidity 81    
Maximum Humidity 100    
Minimum Humidity 49    
Precipitation  
Precipitation 0.00 in - - ()
Sea Level Pressure  
Sea Level Pressure 30.31 in    
Wind  
Wind Speed 1 mph (NNE)    
Max Wind Speed 6 mph    
Max Gust Speed -    
Visibility 9 miles    
Events      
Averages and records for this station are not official NWS values.
T = Trace of Precipitation, MM = Missing Value Source: NWS Daily Summary

Daily Weather History Graph

Daily Weather History Graph

Search for Another Location

Airport or City:

Trip Planner

Search our weather history database for the weather conditions in past years. The results will help you decide how hot, cold, wet, or windy it might be!

Date:

Astronomy

Oct. 29, 2013 Rise Set
Actual Time 7:36 AM EDT 6:22 PM EDT
Civil Twilight 7:09 AM EDT 6:49 PM EDT
Nautical Twilight 6:39 AM EDT 7:19 PM EDT
Astronomical Twilight 6:09 AM EDT 7:49 PM EDT
Moon 2:33 AM EDT (10/29) 3:27 PM EDT (10/29)
Length of Visible Light 11h 39m
Length of Day
10h 46m
Waning Crescent, 25% of the Moon is Illuminated
Oct 29
Waning Crescent
Nov 3
New
Nov 10
First Quarter
Nov 17
Full
Nov 25
Last Quarter

Hourly Weather History & Observations

Time (EDT) Temp. Dew Point Humidity Pressure Visibility Wind Dir Wind Speed Gust Speed Precip Events Conditions
12:15 AM 51.8 °F 51.8 °F 100% 30.28 in 10.0 mi Calm Calm - N/A   Mostly Cloudy
12:35 AM 51.8 °F 51.8 °F 100% 30.27 in 10.0 mi Calm Calm - N/A   Scattered Clouds
12:55 AM 51.8 °F 51.8 °F 100% 30.27 in 7.0 mi Calm Calm - N/A   Scattered Clouds
1:15 AM 50.0 °F 50.0 °F 100% 30.27 in 4.0 mi Calm Calm - N/A   Clear
1:35 AM 50.0 °F 50.0 °F 100% 30.27 in 1.0 mi Calm Calm - N/A   Overcast
1:55 AM 50.0 °F 50.0 °F 100% 30.28 in 5.0 mi Calm Calm - N/A   Overcast
2:15 AM 50.0 °F 50.0 °F 100% 30.28 in 7.0 mi Calm Calm - N/A   Overcast
2:35 AM 50.0 °F 50.0 °F 100% 30.28 in 7.0 mi Calm Calm - N/A   Overcast
2:55 AM 50.0 °F 50.0 °F 100% 30.28 in 7.0 mi Calm Calm - N/A   Overcast
3:15 AM 51.8 °F 51.8 °F 100% 30.28 in 7.0 mi Calm Calm - N/A   Overcast
3:35 AM 51.8 °F 51.8 °F 100% 30.28 in 7.0 mi Calm Calm - N/A   Overcast
3:55 AM 51.8 °F 51.8 °F 100% 30.28 in 10.0 mi Calm Calm - N/A   Overcast
4:15 AM 51.8 °F 51.8 °F 100% 30.28 in 10.0 mi Calm Calm - N/A   Overcast
4:35 AM 51.8 °F 51.8 °F 100% 30.28 in 7.0 mi Calm Calm - N/A   Overcast
4:55 AM 51.8 °F 51.8 °F 100% 30.29 in 10.0 mi Calm Calm - N/A   Overcast
5:15 AM 51.8 °F 51.8 °F 100% 30.29 in 10.0 mi Calm Calm - N/A   Overcast
6:15 AM 51.8 °F 51.8 °F 100% 30.30 in 7.0 mi Calm Calm - N/A   Overcast
9:55 AM 57.2 °F 53.6 °F 88% 30.36 in 10.0 mi Calm Calm - N/A   Overcast
10:35 AM 60.8 °F 53.6 °F 77% 30.36 in 10.0 mi Calm Calm - N/A   Overcast
10:55 AM 60.8 °F 51.8 °F 72% 30.36 in 10.0 mi Calm Calm - N/A   Overcast
11:15 AM 62.6 °F 51.8 °F 68% 30.35 in 10.0 mi Calm Calm - N/A   Overcast
11:35 AM 62.6 °F 51.8 °F 68% 30.35 in 10.0 mi NNE 3.5 mph - N/A   Overcast
11:55 AM 64.4 °F 51.8 °F 64% 30.35 in 10.0 mi Calm Calm - N/A   Mostly Cloudy
12:15 PM 64.4 °F 51.8 °F 64% 30.34 in 10.0 mi Calm Calm - N/A   Scattered Clouds
12:35 PM 68.0 °F 51.8 °F 56% 30.34 in 10.0 mi Calm Calm - N/A   Clear
12:36 PM 68.0 °F 53.6 °F 60% 30.34 in 10.0 mi North 3.5 mph - N/A   Clear
12:55 PM 68.0 °F 51.8 °F 56% 30.33 in 10.0 mi NNE 4.6 mph - N/A   Scattered Clouds
1:15 PM 68.0 °F 51.8 °F 56% 30.32 in 10.0 mi Calm Calm - N/A   Scattered Clouds
1:35 PM 68.0 °F 51.8 °F 56% 30.32 in 10.0 mi NNW 5.8 mph - N/A   Clear
1:55 PM 68.0 °F 51.8 °F 56% 30.31 in 10.0 mi Calm Calm - N/A   Clear
2:15 PM 68.0 °F 50.0 °F 52% 30.30 in 10.0 mi ENE 4.6 mph - N/A   Clear
2:35 PM 68.0 °F 50.0 °F 52% 30.29 in 10.0 mi Calm Calm - N/A   Mostly Cloudy
2:55 PM 69.8 °F 50.0 °F 49% 30.29 in 10.0 mi NE 4.6 mph - N/A   Scattered Clouds
3:15 PM 69.8 °F 50.0 °F 49% 30.29 in 10.0 mi Calm Calm - N/A   Scattered Clouds
3:35 PM 69.8 °F 51.8 °F 53% 30.29 in 5.0 mi NNE 4.6 mph - N/A   Haze
3:55 PM 69.8 °F 50.0 °F 49% 30.29 in 10.0 mi NE 4.6 mph - N/A   Scattered Clouds
4:15 PM 69.8 °F 50.0 °F 49% 30.29 in 10.0 mi Calm Calm - N/A   Scattered Clouds
4:35 PM 69.8 °F 50.0 °F 49% 30.29 in 10.0 mi North 3.5 mph - N/A   Scattered Clouds
4:55 PM 68.0 °F 50.0 °F 52% 30.29 in 10.0 mi Calm Calm - N/A   Scattered Clouds
5:15 PM 68.0 °F 51.8 °F 56% 30.29 in 10.0 mi ENE 4.6 mph - N/A   Clear
5:35 PM 66.2 °F 51.8 °F 60% 30.29 in 10.0 mi ENE 3.5 mph - N/A   Clear
5:55 PM 64.4 °F 51.8 °F 64% 30.30 in 10.0 mi Calm Calm - N/A   Clear
6:15 PM 62.6 °F 53.6 °F 72% 30.30 in 10.0 mi Calm Calm - N/A   Clear
6:35 PM 59.0 °F 51.8 °F 77% 30.30 in 5.0 mi Calm Calm - N/A   Haze
6:55 PM 57.2 °F 53.6 °F 88% 30.30 in 10.0 mi Calm Calm - N/A   Clear
7:15 PM 55.4 °F 53.6 °F 94% 30.31 in 10.0 mi Calm Calm - N/A   Clear
7:35 PM 55.4 °F 53.6 °F 94% 30.32 in 10.0 mi Calm Calm - N/A   Clear
7:55 PM 55.4 °F 51.8 °F 88% 30.32 in 10.0 mi Calm Calm - N/A   Clear
8:15 PM 53.6 °F 51.8 °F 94% 30.32 in 10.0 mi Calm Calm - N/A   Clear
8:35 PM 51.8 °F 51.8 °F 100% 30.32 in 10.0 mi Calm Calm - N/A   Clear
8:55 PM 51.8 °F 51.8 °F 100% 30.32 in 10.0 mi Calm Calm - N/A   Clear
9:15 PM 51.8 °F 51.8 °F 100% 30.32 in 10.0 mi Calm Calm - N/A   Clear
9:35 PM 50.0 °F 50.0 °F 100% 30.32 in 7.0 mi Calm Calm - N/A   Clear
9:55 PM 50.0 °F 50.0 °F 100% 30.33 in 5.0 mi Calm Calm - N/A   Clear
10:15 PM 50.0 °F 50.0 °F 100% 30.33 in 7.0 mi Calm Calm - N/A   Clear
10:35 PM 50.0 °F 50.0 °F 100% 30.33 in 7.0 mi Calm Calm - N/A   Clear
10:55 PM 50.0 °F 50.0 °F 100% 30.33 in 10.0 mi Calm Calm - N/A   Clear
11:15 PM 48.2 °F 48.2 °F 100% 30.32 in 10.0 mi Calm Calm - N/A   Clear
11:35 PM 48.2 °F 48.2 °F 100% 30.32 in 7.0 mi Calm Calm - N/A   Clear
11:55 PM 50.0 °F 50.0 °F 100% 30.32 in 7.0 mi Calm Calm - N/A   Clear